Retour au catalogue

CZ-6A DEB

ActifPO
NORAD 60974·DEBRIS·🇨🇳 China

Lancé Aug 6, 2024 depuis Taiyuan Satellite Launch Center

Loading…

Prochains Passages (prochaines 24 heures)

TLE

FraisSource: Space-Track

Époque: Sep 14, 2026, 08:49 UTC

1 60974U 24140LZ  26257.36746166  .00001072  00000-0  30472-3 0  9997
2 60974  88.7366 236.7979 0072359  41.5411 319.1258 14.43109212109153

Suivez CZ-6A DEB en temps réel avec AllMySat

Download on the App Store